| time (UTC) | temp C | wind direction | speed KPH | gust KPH | rain 1hr cm | rain 24hr cm | rain mn cm | humidity % | barometer mb |
| 20260506033948 | 11 | 283 | 1.6 | 6.4 | 0.00 | 2.57 | 0.10 | 94 | 1006.7 |
| 20260506033448 | 11 | 242 | 1.6 | 8.0 | 0.00 | 2.57 | 0.10 | 94 | 1006.8 |
| 20260506032948 | 11 | 210 | 0.0 | 4.8 | 0.00 | 2.57 | 0.10 | 94 | 1006.8 |
| 20260506032448 | 11 | 218 | 1.6 | 3.2 | 0.00 | 2.57 | 0.10 | 94 | 1006.8 |
| 20260506031948 | 11 | 239 | 1.6 | 8.0 | 0.00 | 2.62 | 0.10 | 94 | 1006.8 |
| 20260506031448 | 11 | 225 | 1.6 | 9.7 | 0.00 | 2.62 | 0.10 | 94 | 1006.9 |
| 20260506030948 | 11 | 236 | 1.6 | 6.4 | 0.00 | 2.62 | 0.10 | 94 | 1006.8 |
| 20260506030448 | 11 | 221 | 1.6 | 11.3 | 0.00 | 2.62 | 0.10 | 94 | 1006.9 |
| 20260506025948 | 11 | 219 | 1.6 | 8.0 | 0.00 | 2.62 | 0.10 | 94 | 1006.8 |
| 20260506025448 | 11 | 210 | 1.6 | 4.8 | 0.00 | 2.62 | 0.10 | 94 | 1006.8 |
| 20260506024948 | 11 | 235 | 1.6 | 6.4 | 0.00 | 2.62 | 0.10 | 94 | 1006.9 |
| 20260506024448 | 11 | 224 | 1.6 | 9.7 | 0.00 | 2.62 | 0.10 | 94 | 1006.9 |
| 20260506023948 | 11 | 270 | 1.6 | 4.8 | 0.00 | 2.62 | 0.10 | 94 | 1007.0 |
| 20260506023448 | 11 | 250 | 1.6 | 4.8 | 0.00 | 2.62 | 0.10 | 94 | 1006.9 |
| 20260506022948 | 11 | 232 | 1.6 | 6.4 | 0.00 | 2.62 | 0.10 | 94 | 1007.0 |
| 20260506022448 | 11 | 217 | 0.0 | 6.4 | 0.00 | 2.62 | 0.10 | 94 | 1007.0 |
| 20260506021948 | 11 | 184 | 0.0 | 3.2 | 0.00 | 2.62 | 0.10 | 94 | 1007.1 |
| 20260506021448 | 11 | 186 | 0.0 | 3.2 | 0.00 | 2.62 | 0.10 | 94 | 1007.2 |
| 20260506020948 | 11 | 165 | 0.0 | 3.2 | 0.00 | 2.62 | 0.10 | 94 | 1007.1 |
| 20260506020448 | 11 | 133 | 0.0 | 1.6 | 0.00 | 2.62 | 0.10 | 94 | 1007.0 |
| 20260506015948 | 11 | 132 | 0.0 | 1.6 | 0.00 | 2.62 | 0.10 | 94 | 1007.0 |
| 20260506015448 | 11 | 134 | 0.0 | 0.0 | 0.00 | 2.62 | 0.10 | 94 | 1007.2 |
| 20260506014948 | 11 | 134 | 0.0 | 1.6 | 0.00 | 2.62 | 0.10 | 94 | 1007.2 |
| 20260506014449 | 11 | 134 | 0.0 | 1.6 | 0.00 | 2.62 | 0.10 | 94 | 1007.3 |
| 20260506013949 | 11 | 125 | 0.0 | 0.0 | 0.00 | 2.62 | 0.10 | 94 | 1007.3 |
| 20260506013449 | 11 | 125 | 0.0 | 0.0 | 0.00 | 2.62 | 0.10 | 94 | 1007.3 |
| 20260506012949 | 11 | 124 | 0.0 | 1.6 | 0.00 | 2.62 | 0.10 | 94 | 1007.4 |
| 20260506012449 | 11 | 127 | 0.0 | 1.6 | 0.00 | 2.62 | 0.10 | 94 | 1007.4 |
| 20260506011949 | 11 | 126 | 0.0 | 0.0 | 0.00 | 2.62 | 0.10 | 94 | 1007.4 |
| 20260506011449 | 11 | 123 | 0.0 | 1.6 | 0.00 | 2.62 | 0.10 | 94 | 1007.5 |
| 20260506010949 | 11 | 131 | 0.0 | 1.6 | 0.00 | 2.62 | 0.10 | 94 | 1007.5 |
| 20260506010449 | 11 | 135 | 0.0 | 1.6 | 0.00 | 2.62 | 0.10 | 94 | 1007.6 |
| 20260506005949 | 11 | 136 | 0.0 | 1.6 | 0.00 | 2.62 | 0.10 | 94 | 1007.5 |
| 20260506005449 | 11 | 138 | 0.0 | 1.6 | 0.00 | 2.62 | 0.10 | 94 | 1007.6 |
| 20260506004949 | 11 | 141 | 0.0 | 0.0 | 0.00 | 2.62 | 0.10 | 94 | 1007.6 |
| 20260506004449 | 11 | 102 | 0.0 | 1.6 | 0.00 | 2.62 | 0.10 | 94 | 1007.7 |
| 20260506003949 | 11 | 101 | 0.0 | 1.6 | 0.00 | 2.62 | 0.10 | 94 | 1007.7 |
| 20260506003449 | 11 | 101 | 0.0 | 3.2 | 0.00 | 2.62 | 0.10 | 94 | 1007.6 |
| 20260506002949 | 11 | 113 | 0.0 | 0.0 | 0.00 | 2.62 | 0.10 | 94 | 1007.8 |
| 20260506002449 | 11 | 113 | 0.0 | 0.0 | 0.00 | 2.62 | 0.10 | 94 | 1007.9 |
| 20260506001949 | 11 | 113 | 0.0 | 0.0 | 0.00 | 2.62 | 0.10 | 94 | 1007.8 |
| 20260506001449 | 11 | 113 | 0.0 | 0.0 | 0.00 | 2.62 | 0.10 | 94 | 1007.8 |
| 20260506000949 | 11 | 113 | 0.0 | 0.0 | 0.00 | 2.62 | 0.10 | 94 | 1007.9 |
| 20260506000449 | 11 | 113 | 0.0 | 0.0 | 0.00 | 2.62 | 0.10 | 94 | 1008.0 |
| 20260505235949 | 11 | 113 | 0.0 | 0.0 | 0.00 | 2.62 | 0.10 | 94 | 1008.1 |
| 20260505235449 | 11 | 113 | 0.0 | 0.0 | 0.00 | 2.62 | 0.10 | 94 | 1008.3 |
| 20260505234949 | 11 | 113 | 0.0 | 0.0 | 0.00 | 2.62 | 0.10 | 94 | 1008.3 |
| 20260505234449 | 11 | 113 | 0.0 | 1.6 | 0.00 | 2.62 | 0.10 | 94 | 1008.2 |
| 20260505233949 | 11 | 113 | 0.0 | 1.6 | 0.00 | 2.62 | 0.10 | 94 | 1008.1 |
| 20260505233449 | 11 | 110 | 0.0 | 0.0 | 0.00 | 2.62 | 0.10 | 94 | 1008.3 |
| 20260505232949 | 11 | 103 | 0.0 | 0.0 | 0.00 | 2.62 | 0.10 | 94 | 1008.4 |
| 20260505232449 | 11 | 103 | 0.0 | 3.2 | 0.03 | 2.62 | 0.10 | 94 | 1008.3 |
| 20260505231949 | 11 | 190 | 0.0 | 4.8 | 0.03 | 2.62 | 0.10 | 94 | 1008.4 |
| 20260505231449 | 11 | 245 | 0.0 | 1.6 | 0.05 | 2.62 | 0.10 | 94 | 1008.4 |
| 20260505230949 | 11 | 132 | 0.0 | 1.6 | 0.05 | 2.62 | 0.10 | 93 | 1008.3 |
| 20260505230449 | 11 | 162 | 0.0 | 1.6 | 0.08 | 2.62 | 0.10 | 94 | 1008.3 |
| 20260505225949 | 11 | 224 | 0.0 | 3.2 | 0.10 | 2.62 | 0.10 | 94 | 1008.2 |
| 20260505225449 | 11 | 145 | 0.0 | 0.0 | 0.15 | 2.62 | 0.10 | 93 | 1008.2 |
| 20260505224949 | 11 | 151 | 0.0 | 0.0 | 0.20 | 2.62 | 0.10 | 93 | 1008.2 |
| 20260505224449 | 11 | 151 | 0.0 | 1.6 | 0.28 | 2.62 | 0.10 | 93 | 1008.2 |
| 20260505223949 | 11 | 146 | 1.6 | 3.2 | 0.38 | 2.62 | 0.10 | 93 | 1008.2 |
| 20260505223449 | 11 | 231 | 1.6 | 4.8 | 0.53 | 2.62 | 0.10 | 93 | 1008.2 |
| 20260505222949 | 11 | 212 | 1.6 | 4.8 | 0.61 | 2.62 | 0.10 | 93 | 1008.2 |
| 20260505222449 | 11 | 56 | 3.2 | 4.8 | 0.61 | 2.59 | 0.08 | 93 | 1007.8 |
| 20260505221949 | 11 | 19 | 3.2 | 6.4 | 0.64 | 2.59 | 0.08 | 93 | 1007.7 |
| 20260505221449 | 11 | 34 | 3.2 | 4.8 | 0.64 | 2.57 | 0.05 | 93 | 1007.8 |
| 20260505220949 | 11 | 42 | 1.6 | 4.8 | 0.66 | 2.57 | 0.05 | 93 | 1007.9 |
| 20260505220449 | 11 | 48 | 0.0 | 3.2 | 0.71 | 2.54 | 0.03 | 93 | 1008.1 |
| 20260505215949 | 11 | 51 | 1.6 | 3.2 | 0.76 | 2.51 | 2.51 | 93 | 1008.1 |
| 20260505215449 | 11 | 46 | 1.6 | 4.8 | 0.76 | 2.46 | 2.46 | 93 | 1008.1 |
| 20260505214949 | 11 | 36 | 1.6 | 3.2 | 0.81 | 2.41 | 2.41 | 93 | 1008.4 |
| 20260505214449 | 11 | 24 | 1.6 | 4.8 | 0.86 | 2.34 | 2.34 | 93 | 1008.7 |
| 20260505213949 | 11 | 29 | 0.0 | 3.2 | 0.91 | 2.24 | 2.24 | 93 | 1008.9 |
| 20260505213449 | 11 | 118 | 0.0 | 0.0 | 0.94 | 2.08 | 2.08 | 93 | 1009.2 |
| 20260505212949 | 11 | 119 | 0.0 | 0.0 | 0.99 | 2.01 | 2.01 | 93 | 1009.1 |
| 20260505212449 | 11 | 29 | 0.0 | 1.6 | 1.07 | 1.98 | 1.98 | 93 | 1009.1 |
| 20260505211949 | 11 | 274 | 0.0 | 0.0 | 1.19 | 1.96 | 1.96 | 93 | 1009.4 |
| 20260505211449 | 11 | 262 | 0.0 | 4.8 | 1.22 | 1.93 | 1.93 | 93 | 1009.5 |
| 20260505210949 | 11 | 263 | 1.6 | 4.8 | 1.24 | 1.91 | 1.91 | 93 | 1009.5 |
| 20260505210449 | 11 | 188 | 1.6 | 6.4 | 1.19 | 1.83 | 1.83 | 93 | 1009.5 |
| 20260505205949 | 11 | 253 | 1.6 | 6.4 | 1.17 | 1.75 | 1.75 | 93 | 1009.6 |
| 20260505205449 | 11 | 223 | 4.8 | 8.0 | 1.17 | 1.70 | 1.70 | 93 | 1009.6 |
| 20260505204949 | 11 | 286 | 8.0 | 14.5 | 1.17 | 1.60 | 1.60 | 93 | 1009.6 |
| 20260505204449 | 11 | 248 | 8.0 | 19.3 | 1.07 | 1.47 | 1.47 | 93 | 1009.6 |
| 20260505203949 | 12 | 295 | 6.4 | 33.8 | 0.91 | 1.32 | 1.32 | 93 | 1009.5 |
| 20260505203449 | 12 | 224 | 6.4 | 17.7 | 0.74 | 1.14 | 1.14 | 93 | 1009.3 |
| 20260505202950 | 12 | 253 | 4.8 | 19.3 | 0.61 | 1.02 | 1.02 | 93 | 1009.3 |
| 20260505202449 | 12 | 176 | 4.8 | 6.4 | 0.51 | 0.91 | 0.91 | 93 | 1009.2 |
| 20260505201949 | 12 | 282 | 4.8 | 16.1 | 0.36 | 0.76 | 0.76 | 93 | 1009.3 |
| 20260505201449 | 13 | 214 | 3.2 | 8.0 | 0.30 | 0.71 | 0.71 | 93 | 1009.0 |
| 20260505200949 | 12 | 70 | 4.8 | 11.3 | 0.25 | 0.66 | 0.66 | 93 | 1008.4 |
| 20260505200449 | 12 | 34 | 6.4 | 12.9 | 0.25 | 0.64 | 0.64 | 93 | 1007.6 |
| 20260505195949 | 12 | 22 | 3.2 | 12.9 | 0.20 | 0.58 | 0.58 | 93 | 1007.6 |
| 20260505195449 | 12 | 21 | 1.6 | 6.4 | 0.18 | 0.53 | 0.53 | 93 | 1007.7 |
| 20260505194949 | 12 | 91 | 1.6 | 9.7 | 0.10 | 0.43 | 0.43 | 93 | 1007.9 |
| 20260505194449 | 12 | 107 | 3.2 | 4.8 | 0.08 | 0.41 | 0.41 | 93 | 1007.9 |
| 20260505193949 | 12 | 68 | 4.8 | 9.7 | 0.10 | 0.41 | 0.41 | 93 | 1007.7 |
| 20260505193449 | 12 | 51 | 6.4 | 9.7 | 0.18 | 0.41 | 0.41 | 93 | 1007.7 |
| 20260505192949 | 12 | 29 | 8.0 | 12.9 | 0.23 | 0.41 | 0.41 | 92 | 1007.7 |
| 20260505192450 | 12 | 9 | 9.7 | 12.9 | 0.25 | 0.41 | 0.41 | 92 | 1007.5 |
| 20260505191950 | 13 | 46 | 8.0 | 17.7 | 0.30 | 0.41 | 0.41 | 92 | 1007.6 |
| 20260505191449 | 13 | 71 | 4.8 | 12.9 | 0.30 | 0.41 | 0.41 | 92 | 1007.7 |
| 20260505190950 | 13 | 30 | 4.8 | 8.0 | 0.30 | 0.41 | 0.41 | 92 | 1007.8 |
| 20260505190450 | 13 | 29 | 4.8 | 11.3 | 0.28 | 0.38 | 0.38 | 92 | 1007.8 |
| 20260505185950 | 13 | 20 | 4.8 | 12.9 | 0.28 | 0.38 | 0.38 | 92 | 1007.6 |
| 20260505185450 | 13 | 2 | 6.4 | 8.0 | 0.25 | 0.36 | 0.36 | 92 | 1007.7 |
| 20260505184950 | 13 | 51 | 6.4 | 14.5 | 0.23 | 0.33 | 0.33 | 91 | 1007.7 |
| 20260505184450 | 13 | 36 | 6.4 | 14.5 | 0.23 | 0.33 | 0.33 | 91 | 1007.7 |
| 20260505183950 | 13 | 75 | 6.4 | 14.5 | 0.20 | 0.30 | 0.30 | 90 | 1007.7 |
| 20260505183450 | 14 | 39 | 1.6 | 12.9 | 0.13 | 0.23 | 0.23 | 87 | 1007.9 |
| 20260505182950 | 15 | 296 | 0.0 | 3.2 | 0.08 | 0.18 | 0.18 | 86 | 1008.2 |
| 20260505182450 | 15 | 21 | 1.6 | 0.0 | 0.05 | 0.15 | 0.15 | 84 | 1008.2 |
| 20260505181950 | 15 | 21 | 1.6 | 4.8 | 0.03 | 0.10 | 0.10 | 84 | 1008.0 |
| 20260505181450 | 15 | 54 | 3.2 | 8.0 | 0.03 | 0.10 | 0.10 | 84 | 1007.9 |
| 20260505180950 | 15 | 41 | 4.8 | 8.0 | 0.03 | 0.10 | 0.10 | 84 | 1007.8 |
| 20260505180450 | 15 | 56 | 4.8 | 12.9 | 0.03 | 0.10 | 0.10 | 83 | 1007.7 |
| 20260505175950 | 15 | 51 | 4.8 | 11.3 | 0.03 | 0.10 | 0.10 | 84 | 1007.6 |
| 20260505175450 | 15 | 32 | 6.4 | 11.3 | 0.03 | 0.10 | 0.10 | 84 | 1007.5 |
| 20260505174950 | 15 | 48 | 6.4 | 11.3 | 0.03 | 0.10 | 0.10 | 83 | 1007.6 |
| 20260505174450 | 15 | 59 | 8.0 | 12.9 | 0.03 | 0.10 | 0.10 | 83 | 1007.6 |
| 20260505173950 | 15 | 31 | 9.7 | 17.7 | 0.03 | 0.10 | 0.10 | 83 | 1007.4 |
| 20260505173450 | 15 | 16 | 9.7 | 17.7 | 0.03 | 0.10 | 0.10 | 82 | 1007.4 |
| 20260505172950 | 15 | 40 | 8.0 | 19.3 | 0.03 | 0.10 | 0.10 | 81 | 1007.6 |
| 20260505172450 | 15 | 39 | 6.4 | 14.5 | 0.03 | 0.10 | 0.10 | 81 | 1007.9 |
| 20260505171950 | 16 | 55 | 6.4 | 11.3 | 0.00 | 0.08 | 0.08 | 80 | 1008.2 |
| 20260505171450 | 16 | 49 | 6.4 | 11.3 | 0.00 | 0.08 | 0.08 | 79 | 1008.5 |
| 20260505170950 | 16 | 55 | 6.4 | 9.7 | 0.00 | 0.08 | 0.08 | 79 | 1008.7 |
| 20260505170450 | 16 | 58 | 4.8 | 9.7 | 0.00 | 0.08 | 0.08 | 78 | 1008.7 |
| 20260505165950 | 16 | 51 | 3.2 | 9.7 | 0.00 | 0.08 | 0.08 | 77 | 1008.5 |
| 20260505165450 | 16 | 29 | 3.2 | 9.7 | 0.00 | 0.08 | 0.08 | 78 | 1008.6 |
| 20260505164950 | 16 | 76 | 3.2 | 8.0 | 0.00 | 0.08 | 0.08 | 78 | 1008.7 |
| 20260505164450 | 16 | 34 | 4.8 | 9.7 | 0.00 | 0.08 | 0.08 | 78 | 1008.5 |
| 20260505163950 | 16 | 55 | 4.8 | 9.7 | 0.00 | 0.08 | 0.08 | 78 | 1008.5 |
| 20260505163450 | 16 | 38 | 4.8 | 11.3 | 0.00 | 0.08 | 0.08 | 77 | 1008.5 |
| 20260505162950 | 16 | 23 | 6.4 | 14.5 | 0.00 | 0.08 | 0.08 | 77 | 1008.5 |
| 20260505162450 | 16 | 63 | 6.4 | 14.5 | 0.00 | 0.08 | 0.08 | 77 | 1008.5 |
| 20260505161950 | 16 | 351 | 6.4 | 9.7 | 0.00 | 0.08 | 0.08 | 77 | 1008.7 |
| 20260505161450 | 16 | 30 | 6.4 | 14.5 | 0.00 | 0.08 | 0.08 | 76 | 1008.8 |
| 20260505160950 | 17 | 20 | 6.4 | 14.5 | 0.00 | 0.08 | 0.08 | 76 | 1008.7 |
| 20260505160450 | 17 | 68 | 6.4 | 11.3 | 0.00 | 0.08 | 0.08 | 76 | 1008.8 |
| 20260505152950 | 17 | 11 | 8.0 | 11.3 | 0.00 | 0.08 | 0.08 | 75 | 1008.9 |
| 20260505152450 | 17 | 18 | 8.0 | 14.5 | 0.00 | 0.08 | 0.08 | 75 | 1009.0 |
| 20260505151950 | 17 | 58 | 8.0 | 12.9 | 0.00 | 0.08 | 0.08 | 74 | 1009.1 |
| 20260505151450 | 17 | 28 | 8.0 | 12.9 | 0.00 | 0.08 | 0.08 | 75 | 1009.1 |
| 20260505150950 | 17 | 43 | 8.0 | 12.9 | 0.00 | 0.08 | 0.08 | 74 | 1009.1 |
| 20260505150450 | 17 | 54 | 6.4 | 12.9 | 0.00 | 0.08 | 0.08 | 74 | 1009.3 |
| 20260505140450 | 17 | 46 | 11.3 | 22.5 | 0.00 | 0.08 | 0.08 | 72 | 1009.7 |
| 20260505124950 | 16 | 340 | 8.0 | 19.3 | 0.00 | 0.08 | 0.08 | 80 | 1009.9 |
| 20260505124450 | 16 | 21 | 8.0 | 19.3 | 0.00 | 0.08 | 0.08 | 81 | 1009.9 |
| 20260505123950 | 16 | 31 | 6.4 | 16.1 | 0.00 | 0.08 | 0.08 | 81 | 1009.9 |
| 20260505123450 | 16 | 43 | 4.8 | 16.1 | 0.00 | 0.08 | 0.08 | 81 | 1010.0 |
| 20260505122950 | 16 | 6 | 4.8 | 14.5 | 0.00 | 0.08 | 0.08 | 82 | 1010.0 |
| 20260505122450 | 16 | 49 | 4.8 | 9.7 | 0.00 | 0.08 | 0.08 | 81 | 1010.1 |
| 20260505121950 | 16 | 34 | 4.8 | 12.9 | 0.00 | 0.08 | 0.08 | 81 | 1010.2 |
| 20260505121450 | 16 | 51 | 4.8 | 12.9 | 0.00 | 0.08 | 0.08 | 80 | 1010.2 |
| 20260505120951 | 16 | 51 | 4.8 | 12.9 | 0.00 | 0.08 | 0.08 | 81 | 1010.1 |
| 20260505120451 | 16 | 16 | 6.4 | 11.3 | 0.00 | 0.08 | 0.08 | 80 | 1010.1 |
| 20260505115950 | 16 | 43 | 4.8 | 14.5 | 0.00 | 0.08 | 0.08 | 79 | 1010.2 |
| 20260505115451 | 17 | 41 | 1.6 | 9.7 | 0.00 | 0.08 | 0.08 | 79 | 1010.2 |
| 20260505114951 | 16 | 13 | 3.2 | 8.0 | 0.00 | 0.08 | 0.08 | 80 | 1010.2 |
| 20260505114451 | 16 | 30 | 4.8 | 12.9 | 0.00 | 0.08 | 0.08 | 81 | 1010.2 |
| 20260505113951 | 16 | 19 | 4.8 | 12.9 | 0.00 | 0.08 | 0.08 | 82 | 1010.2 |
| 20260505113451 | 16 | 27 | 4.8 | 16.1 | 0.00 | 0.08 | 0.08 | 81 | 1010.2 |
| 20260505112951 | 16 | 18 | 3.2 | 12.9 | 0.00 | 0.08 | 0.08 | 81 | 1010.2 |
| 20260505112451 | 16 | 334 | 3.2 | 9.7 | 0.00 | 0.08 | 0.08 | 82 | 1010.2 |
| 20260505111951 | 16 | 316 | 3.2 | 9.7 | 0.00 | 0.08 | 0.08 | 81 | 1010.3 |
| 20260505111451 | 16 | 311 | 1.6 | 11.3 | 0.00 | 0.08 | 0.08 | 81 | 1010.3 |
| 20260505110951 | 16 | 29 | 1.6 | 3.2 | 0.00 | 0.08 | 0.08 | 82 | 1010.4 |
| 20260505110451 | 16 | 272 | 1.6 | 9.7 | 0.00 | 0.08 | 0.08 | 81 | 1010.5 |
| 20260505101951 | 15 | 285 | 0.0 | 3.2 | 0.00 | 0.08 | 0.08 | 84 | 1010.7 |
| 20260505101451 | 15 | 233 | 0.0 | 3.2 | 0.00 | 0.08 | 0.08 | 84 | 1010.6 |
| 20260505100951 | 15 | 280 | 0.0 | 3.2 | 0.00 | 0.08 | 0.08 | 84 | 1010.7 |
| 20260505100451 | 15 | 262 | 0.0 | 1.6 | 0.00 | 0.08 | 0.08 | 84 | 1010.7 |
| 20260505095951 | 15 | 8 | 1.6 | 4.8 | 0.00 | 0.08 | 0.08 | 84 | 1010.6 |
| 20260505095451 | 15 | 358 | 1.6 | 6.4 | 0.00 | 0.08 | 0.08 | 83 | 1010.8 |
| 20260505094951 | 15 | 27 | 1.6 | 8.0 | 0.00 | 0.08 | 0.08 | 83 | 1010.6 |
| 20260505094451 | 15 | 37 | 1.6 | 6.4 | 0.00 | 0.08 | 0.08 | 83 | 1010.8 |
| 20260505093951 | 16 | 18 | 3.2 | 8.0 | 0.00 | 0.08 | 0.08 | 82 | 1010.8 |
| 20260505093451 | 16 | 353 | 1.6 | 8.0 | 0.00 | 0.08 | 0.08 | 82 | 1010.8 |
| 20260505092951 | 16 | 28 | 0.0 | 6.4 | 0.00 | 0.08 | 0.08 | 82 | 1010.9 |
| 20260505092451 | 16 | 228 | 1.6 | 4.8 | 0.00 | 0.08 | 0.08 | 82 | 1010.9 |
| 20260505091951 | 16 | 25 | 3.2 | 6.4 | 0.00 | 0.08 | 0.08 | 83 | 1010.9 |
| 20260505091451 | 16 | 34 | 1.6 | 8.0 | 0.00 | 0.08 | 0.08 | 81 | 1011.3 |
| 20260505090951 | 16 | 18 | 1.6 | 9.7 | 0.00 | 0.08 | 0.08 | 82 | 1011.0 |
| 20260505090451 | 16 | 328 | 1.6 | 4.8 | 0.00 | 0.08 | 0.08 | 82 | 1010.8 |
| 20260505085951 | 15 | 48 | 1.6 | 6.4 | 0.00 | 0.08 | 0.08 | 83 | 1011.0 |
| 20260505085451 | 15 | 120 | 1.6 | 4.8 | 0.00 | 0.08 | 0.08 | 83 | 1011.1 |
| 20260505084951 | 15 | 122 | 0.0 | 4.8 | 0.00 | 0.08 | 0.08 | 84 | 1011.1 |
| 20260505084451 | 15 | 124 | 0.0 | 3.2 | 0.00 | 0.08 | 0.08 | 84 | 1011.2 |
| 20260505083951 | 15 | 126 | 0.0 | 1.6 | 0.00 | 0.08 | 0.08 | 84 | 1011.2 |
| 20260505083451 | 15 | 126 | 0.0 | 3.2 | 0.00 | 0.08 | 0.08 | 84 | 1011.2 |
| 20260505082951 | 15 | 126 | 0.0 | 1.6 | 0.00 | 0.08 | 0.08 | 84 | 1011.2 |
| 20260505082451 | 15 | 125 | 0.0 | 3.2 | 0.00 | 0.08 | 0.08 | 84 | 1011.2 |
| 20260505081951 | 15 | 165 | 0.0 | 0.0 | 0.00 | 0.08 | 0.08 | 85 | 1011.2 |
| 20260505081451 | 14 | 134 | 0.0 | 1.6 | 0.00 | 0.08 | 0.08 | 85 | 1011.1 |
| 20260505080951 | 14 | 134 | 0.0 | 1.6 | 0.00 | 0.08 | 0.08 | 85 | 1011.1 |
| 20260505080451 | 14 | 132 | 0.0 | 1.6 | 0.00 | 0.08 | 0.08 | 86 | 1011.2 |
| 20260505075951 | 14 | 134 | 0.0 | 3.2 | 0.00 | 0.08 | 0.08 | 86 | 1011.2 |
| 20260505075451 | 14 | 149 | 0.0 | 1.6 | 0.00 | 0.08 | 0.08 | 87 | 1011.2 |
| 20260505074951 | 13 | 160 | 0.0 | 0.0 | 0.00 | 0.08 | 0.08 | 88 | 1011.3 |
| 20260505074451 | 13 | 163 | 0.0 | 1.6 | 0.00 | 0.08 | 0.08 | 88 | 1011.3 |
| 20260505073951 | 13 | 135 | 0.0 | 1.6 | 0.00 | 0.08 | 0.08 | 89 | 1011.4 |
| 20260505073451 | 13 | 130 | 1.6 | 3.2 | 0.00 | 0.08 | 0.08 | 90 | 1011.3 |
| 20260505072951 | 13 | 128 | 1.6 | 4.8 | 0.00 | 0.08 | 0.08 | 90 | 1011.3 |
| 20260505072451 | 13 | 176 | 0.0 | 3.2 | 0.00 | 0.08 | 0.08 | 90 | 1011.3 |
| 20260505071951 | 13 | 188 | 0.0 | 3.2 | 0.00 | 0.08 | 0.08 | 90 | 1011.2 |
| 20260505071451 | 13 | 187 | 0.0 | 1.6 | 0.00 | 0.08 | 0.08 | 90 | 1011.2 |
| 20260505070951 | 13 | 217 | 0.0 | 1.6 | 0.00 | 0.08 | 0.08 | 89 | 1011.3 |
| 20260505070451 | 13 | 245 | 0.0 | 0.0 | 0.00 | 0.08 | 0.08 | 90 | 1011.2 |
| 20260505065951 | 13 | 245 | 0.0 | 0.0 | 0.00 | 0.08 | 0.08 | 90 | 1011.3 |
| 20260505065451 | 13 | 245 | 0.0 | 1.6 | 0.00 | 0.08 | 0.08 | 90 | 1011.4 |
| 20260505064951 | 13 | 245 | 0.0 | 0.0 | 0.00 | 0.08 | 0.08 | 90 | 1011.4 |
| 20260505064451 | 13 | 252 | 0.0 | 1.6 | 0.00 | 0.08 | 0.08 | 90 | 1011.4 |
| 20260505063951 | 13 | 264 | 0.0 | 1.6 | 0.00 | 0.08 | 0.08 | 90 | 1011.4 |
| 20260505063451 | 13 | 236 | 0.0 | 1.6 | 0.00 | 0.08 | 0.08 | 90 | 1011.4 |
| 20260505062951 | 13 | 236 | 0.0 | 0.0 | 0.00 | 0.08 | 0.08 | 90 | 1011.5 |
| 20260505062451 | 12 | 236 | 0.0 | 0.0 | 0.00 | 0.08 | 0.08 | 90 | 1011.5 |
| 20260505061951 | 12 | 236 | 0.0 | 1.6 | 0.00 | 0.08 | 0.08 | 90 | 1011.5 |
| 20260505061451 | 12 | 236 | 0.0 | 1.6 | 0.00 | 0.08 | 0.08 | 90 | 1011.6 |
| 20260505060951 | 12 | 266 | 0.0 | 1.6 | 0.00 | 0.08 | 0.08 | 90 | 1011.7 |
| 20260505060451 | 12 | 238 | 0.0 | 1.6 | 0.00 | 0.08 | 0.08 | 90 | 1011.8 |
| 20260505055951 | 12 | 245 | 1.6 | 3.2 | 0.00 | 0.08 | 0.08 | 90 | 1012.0 |
| 20260505055451 | 12 | 242 | 0.0 | 4.8 | 0.00 | 0.08 | 0.08 | 90 | 1012.0 |
| 20260505054951 | 12 | 245 | 0.0 | 3.2 | 0.00 | 0.08 | 0.08 | 90 | 1011.9 |
| 20260505054451 | 12 | 235 | 0.0 | 1.6 | 0.00 | 0.08 | 0.08 | 90 | 1011.9 |
| 20260505053951 | 12 | 241 | 0.0 | 1.6 | 0.00 | 0.08 | 0.08 | 90 | 1011.8 |
| 20260505053451 | 12 | 241 | 0.0 | 1.6 | 0.00 | 0.08 | 0.08 | 90 | 1011.9 |
| 20260505052952 | 12 | 238 | 0.0 | 1.6 | 0.00 | 0.08 | 0.08 | 90 | 1011.9 |
| 20260505052452 | 12 | 237 | 0.0 | 1.6 | 0.00 | 0.08 | 0.08 | 90 | 1011.8 |
| 20260505051952 | 12 | 242 | 0.0 | 1.6 | 0.03 | 0.08 | 0.08 | 90 | 1011.9 |
| 20260505051452 | 12 | 250 | 0.0 | 3.2 | 0.03 | 0.08 | 0.08 | 89 | 1011.9 |
| 20260505050952 | 12 | 240 | 0.0 | 1.6 | 0.05 | 0.08 | 0.08 | 89 | 1011.9 |
| 20260505050452 | 12 | 226 | 0.0 | 1.6 | 0.08 | 0.08 | 0.08 | 89 | 1011.8 |
| 20260505041452 | 12 | 248 | 1.6 | 3.2 | 0.05 | 0.05 | 0.05 | 87 | 1011.7 |
| 20260505040952 | 12 | 252 | 0.0 | 6.4 | 0.03 | 0.03 | 0.03 | 87 | 1011.7 |
| 20260505040452 | 13 | 244 | 0.0 | 1.6 | 0.00 | 0.00 | 0.00 | 86 | 1011.8 |
| 20260505035952 | 13 | 240 | 0.0 | 1.6 | 0.00 | 0.00 | 0.00 | 85 | 1011.6 |
| 20260505035452 | 13 | 241 | 0.0 | 1.6 | 0.00 | 0.00 | 0.00 | 85 | 1011.6 |
| 20260505034952 | 13 | 243 | 0.0 | 0.0 | 0.00 | 0.00 | 0.00 | 84 | 1011.7 |
| 20260505034452 | 13 | 241 | 0.0 | 1.6 | 0.00 | 0.00 | 0.00 | 84 | 1011.7 |